[[{"header":{"parameterUnit":"m.s-1","parameterCategory":1,"la1":30.2991,"la2":30.254,"lo1":-89.0895,"lo2":-89.0444,"dy":0.0017,"dx":0.0017,"nx":28,"ny":28,"refTime":"2024-05-23T21:00:00:Z","depth":0,"parameterNumber":2,"parameterNumberName":"U-component_of_WINDS"},"data":[0,0,0,0,0,0,0,0,0,0,0,0,0,0,0,0,0,0,0,0,0,0,0,0,0,0,0,0,0,0,0,0,0,0,0,0,0,0,0,0,0,0,0,0,0,0,0,0,0,0,0,0,0,0,0,0,0,0,2.6718,2.6719,0,2.6824,2.6825,2.6827,2.6825,2.6824,2.6822,2.6821,2.693,2.6934,2.6938,0,0,0,0,0,0,0,0,0,0,0,0,0,2.6514,2.6517,2.6718,2.6719,2.6721,2.6824,2.6825,2.6827,2.6825,2.6824,2.6822,2.682,2.6928,2.6933,2.6938,0,0,0,0,0,0,0,0,0,0,0,0,0,2.6609,2.6519,2.6718,2.6732,2.6735,2.6824,2.6825,2.6827,2.6826,2.6824,2.6821,2.6819,2.6927,2.6933,2.6939,2.702,0,0,2.6958,2.6961,0,0,0,0,0,0,0,0,2.6604,2.6617,2.6729,2.6731,2.6734,2.6809,2.6793,2.6892,2.6826,2.6791,2.6821,2.6818,2.6891,2.69,2.6925,2.7026,2.703,2.6959,2.6963,2.6965,2.6967,0,0,0,0,0,0,0,2.6597,2.6612,2.676,2.673,2.6734,2.6733,2.6745,2.6812,2.6852,2.6794,2.6794,2.6807,2.6892,2.6919,2.6927,2.7032,2.6959,2.6964,2.6968,2.6971,2.7204,2.7206,0,0,0,0,0,0,2.6588,2.6607,2.6757,2.6763,2.6663,2.6739,2.6751,2.6787,2.6851,2.6859,2.6808,2.6806,2.6909,2.692,2.6931,2.703,2.6965,2.6971,2.6975,2.7202,2.7204,2.7207,0,0,0,0,0,0,2.6583,2.6601,2.6752,2.6685,2.6704,2.6745,2.6785,2.679,2.6817,2.6862,2.6869,2.6828,2.6908,2.6922,2.6998,2.7034,2.6974,2.698,2.7199,2.7202,2.7206,2.7229,0,0,0,0,0,0,2.6577,2.6599,2.6631,2.6686,2.6708,2.6817,2.6787,2.6794,2.6828,2.6826,2.6882,2.689,2.6907,2.6989,2.7004,2.7041,2.6985,2.7196,2.72,2.7205,2.7225,2.7233,2.7239,0,0,0,0,0,2.657,2.6633,2.6632,2.6651,2.6748,2.6819,2.6832,2.6851,2.6831,2.6862,2.6891,2.6888,2.7028,2.6996,2.7014,2.7054,2.7193,2.7199,2.7204,2.7222,2.7231,2.7239,0,0,0,0,0,0,2.6581,2.6641,2.664,2.6723,2.6766,2.6819,2.686,2.6861,2.691,2.6906,2.6928,2.6941,2.7016,2.7043,2.7007,2.7135,2.7108,2.7117,2.7115,2.7124,2.7131,2.7123,2.699,0,0,0,0,0,2.6594,2.6647,2.6696,2.6764,2.6786,2.6819,2.6851,2.6862,2.6907,2.6925,2.696,2.7004,2.7058,2.7093,2.7145,2.7229,2.7241,2.7265,2.7272,2.7278,2.7285,2.7331,2.7342,2.7225,2.7225,2.7225,0,0,2.6619,2.6658,2.669,2.6767,2.6802,2.6856,2.6834,2.6893,2.6933,2.6934,2.7008,2.7035,2.7085,2.7165,2.7202,2.719,2.732,2.7285,2.7289,2.7293,2.7337,2.7348,2.7358,2.7228,2.7228,2.7227,0,0,2.6693,2.6728,2.6789,2.6824,2.6877,2.6898,2.6913,2.6966,2.6984,2.7058,2.7059,2.7108,2.72,2.7236,2.7266,2.7354,2.7352,2.7371,2.7408,2.7452,2.7461,2.7469,2.7499,2.751,2.7378,2.7378,2.7378,0,2.6718,2.68,2.682,2.6878,2.6912,2.6916,2.6976,2.701,2.7077,2.71,2.7085,2.7201,2.7235,2.7323,2.7344,2.7369,2.7386,2.7364,2.7458,2.7467,2.7475,2.7503,2.7515,2.738,2.738,2.738,2.7379,0,2.6827,2.6884,2.6927,2.6991,2.703,2.7089,2.7118,2.7154,2.7162,2.7185,2.726,2.7302,2.7362,2.7384,2.7393,2.7473,2.7464,2.7454,2.7426,2.7487,2.7514,2.7526,2.7383,2.7382,2.7381,2.7381,0,0,2.691,2.6985,2.7,2.7029,2.7088,2.7132,2.7192,2.7251,2.7281,2.7328,2.7378,2.7456,2.7446,2.7481,2.7494,2.7532,2.7598,2.7517,2.7519,2.753,2.7688,2.7694,2.7707,2.7598,2.76,2.7602,2.7683,0,2.6989,2.7095,2.7115,2.7207,2.7259,2.7264,2.7316,2.7357,2.7381,2.7428,2.7455,2.7509,2.7493,2.7514,2.7553,2.7582,2.763,2.7576,2.7644,2.7646,2.7629,2.7722,2.7729,2.7804,2.7694,2.7696,2.7698,0,2.7095,2.7144,2.7241,2.7293,2.7315,2.7362,2.7417,2.7463,2.751,2.7524,2.7563,2.7571,2.7633,2.7603,2.7688,2.7652,2.7681,2.7699,2.7702,2.7708,2.7674,2.7729,2.7828,2.7839,2.7715,2.7714,2.7712,0,2.7144,2.7234,2.7304,2.7329,2.7391,2.7423,2.7451,2.7496,2.753,2.7578,2.76,2.7655,2.7685,2.7728,2.775,2.7727,2.7834,2.7806,2.7846,2.7846,2.7867,2.7865,2.7972,2.7889,2.7888,2.7888,2.7888,0,2.7229,2.7288,2.7327,2.7369,2.7436,2.7458,2.7523,2.7549,2.759,2.7637,2.7645,2.769,2.7718,2.7766,2.7785,2.7852,2.7866,2.7878,2.7882,2.7877,2.7875,2.7895,2.789,2.7891,2.7891,2.789,2.7889,0,2.7294,2.7323,2.7399,2.7451,2.7466,2.7512,2.7557,2.7599,2.7622,2.7683,2.7698,2.7735,2.7793,2.782,2.7892,2.7904,2.798,2.7981,2.7963,2.7965,2.8002,2.7998,2.8124,2.8141,2.8048,2.8049,2.805,0,2.7346,2.7392,2.7449,2.7482,2.751,2.7562,2.7597,2.7621,2.7657,2.7714,2.7748,2.7806,2.7854,2.7945,2.7979,2.8033,2.8035,2.8075,2.8043,2.8036,2.8034,2.803,2.8034,2.8081,2.8081,2.8082,2.8083,0,2.7434,2.7446,2.7496,2.7551,2.7592,2.7637,2.768,2.7706,2.7737,2.7777,2.7836,2.7873,2.7945,2.8002,2.8059,2.8087,2.809,2.8093,2.8105,2.8099,2.8086,2.8092,2.7978,2.809,2.8089,2.8088,2.8088,2.8088,2.7494,2.7534,2.7581,2.7636,2.7671,2.7712,2.7753,2.7782,2.7832,2.7892,2.7904,2.7966,2.8012,2.8089,2.8119,2.8168,2.8158,2.8176,2.818,2.8184,2.8185,2.808,2.8178,2.8178,2.8178,2.8178,2.8178,0,2.7581,2.7611,2.7662,2.7723,2.7766,2.7766,2.7814,2.785,2.7904,2.7947,2.7994,2.8061,2.8117,2.8155,2.8211,2.8243,2.8245,2.8256,2.8253,2.826,2.8191,2.8174,2.8253,2.8253,2.8253,2.8253,2.8253,2.8253,2.7631,2.7699,2.7717,2.7802,2.7832,2.7893,2.7921,2.7958,2.7992,2.8067,2.8113,2.8138,2.8178,2.8237,2.8288,2.8298,2.8318,2.8329,2.8338,2.8273,2.8265,2.8257,2.8241,2.8333,2.8333,2.8403,2.8403,2.8404]},{"header":{"parameterUnit":"m.s-1","parameterCategory":1,"la1":30.2991,"la2":30.254,"lo1":-89.0895,"lo2":-89.0444,"dy":0.0017,"dx":0.0017,"nx":28,"ny":28,"refTime":"2024-05-23T21:00:00:Z","depth":0,"parameterNumber":3,"parameterNumberName":"V-component_of_WINDS"},"data":[0,0,0,0,0,0,0,0,0,0,0,0,0,0,0,0,0,0,0,0,0,0,0,0,0,0,0,0,0,0,0,0,0,0,0,0,0,0,0,0,0,0,0,0,0,0,0,0,0,0,0,0,0,0,0,0,0,0,4.2324,4.2324,0,4.2348,4.2349,4.2349,4.2301,4.2299,4.2298,4.2296,4.2318,4.232,4.2322,0,0,0,0,0,0,0,0,0,0,0,0,0,4.2232,4.2234,4.2324,4.2324,4.2324,4.2348,4.2349,4.2349,4.2301,4.2299,4.2297,4.2295,4.2317,4.232,4.2322,0,0,0,0,0,0,0,0,0,0,0,0,0,4.2265,4.2234,4.2324,4.2303,4.2302,4.2348,4.2349,4.2349,4.2301,4.2299,4.2297,4.2294,4.2317,4.232,4.2323,4.2389,0,0,4.2332,4.2333,0,0,0,0,0,0,0,0,4.2264,4.2269,4.2306,4.2305,4.2303,4.2319,4.2324,4.2362,4.2302,4.2301,4.2296,4.2293,4.232,4.2323,4.2332,4.239,4.2391,4.2332,4.2334,4.2335,4.2336,0,0,0,0,0,0,0,4.2261,4.2267,4.2333,4.2307,4.2305,4.2292,4.2294,4.2331,4.2324,4.2301,4.2298,4.2302,4.2319,4.233,4.2333,4.2391,4.2332,4.2335,4.2337,4.2338,4.2504,4.2507,0,0,0,0,0,0,4.2262,4.2266,4.2332,4.2334,4.2277,4.2295,4.2298,4.2316,4.2323,4.2322,4.2304,4.2299,4.2325,4.2329,4.2333,4.2411,4.2335,4.2338,4.234,4.2502,4.2505,4.2507,0,0,0,0,0,0,4.226,4.2268,4.2331,4.2299,4.2306,4.23,4.2321,4.2318,4.2329,4.2325,4.2323,4.2316,4.2324,4.2329,4.2376,4.2411,4.234,4.2342,4.2499,4.2503,4.2506,4.2568,0,0,0,0,0,0,4.2258,4.2268,4.2294,4.23,4.2308,4.2375,4.2323,4.232,4.2335,4.2329,4.2336,4.2335,4.2322,4.2371,4.2379,4.2414,4.2345,4.2495,4.25,4.2505,4.2563,4.2574,4.2583,0,0,0,0,0,4.2255,4.231,4.2295,4.2304,4.234,4.2377,4.2381,4.2366,4.2338,4.2363,4.2361,4.2335,4.2406,4.2376,4.2384,4.2422,4.2493,4.2499,4.2505,4.2558,4.2572,4.2583,0,0,0,0,0,0,4.2306,4.231,4.2294,4.2353,4.2365,4.2369,4.24,4.2381,4.24,4.2394,4.2374,4.2376,4.2427,4.2428,4.2395,4.2486,4.2445,4.2452,4.2483,4.2495,4.2505,4.2504,4.2347,0,0,0,0,0,4.2325,4.2355,4.2356,4.2408,4.2415,4.2407,4.2422,4.241,4.2421,4.2425,4.2426,4.2437,4.2462,4.2479,4.2501,4.2563,4.2564,4.2592,4.2602,4.2611,4.2617,4.265,4.2663,4.2526,4.2526,4.2526,0,0,4.2363,4.2369,4.2389,4.2419,4.2426,4.2457,4.2411,4.2446,4.2468,4.243,4.2475,4.2476,4.2487,4.2541,4.2565,4.2545,4.2655,4.2618,4.2625,4.2627,4.2657,4.267,4.2682,4.253,4.253,4.2529,0,0,4.2448,4.2456,4.25,4.2509,4.2522,4.2516,4.2527,4.2534,4.2533,4.2578,4.255,4.2576,4.2619,4.2628,4.2639,4.2728,4.2705,4.2736,4.2788,4.282,4.2831,4.284,4.2872,4.2884,4.2743,4.2743,4.2743,0,4.2493,4.254,4.2525,4.2562,4.2575,4.2544,4.2588,4.2597,4.2616,4.2626,4.2603,4.2657,4.2662,4.2718,4.274,4.2749,4.276,4.2735,4.2831,4.284,4.2849,4.2879,4.2891,4.2746,4.2746,4.2746,4.2745,0,4.2595,4.2628,4.2662,4.2683,4.27,4.2741,4.2731,4.275,4.2736,4.2733,4.2778,4.2783,4.2807,4.2819,4.2805,4.2874,4.286,4.2835,4.2792,4.2866,4.2894,4.2905,4.2752,4.275,4.2749,4.2748,0,0,4.2713,4.2726,4.2739,4.2748,4.276,4.2785,4.2824,4.2848,4.2865,4.2879,4.291,4.2948,4.2925,4.2936,4.2923,4.2952,4.3022,4.2922,4.2922,4.294,4.3098,4.3117,4.3131,4.3007,4.3009,4.3011,4.3097,0,4.2798,4.2866,4.2854,4.2919,4.2949,4.292,4.2953,4.2964,4.2962,4.2986,4.2983,4.301,4.2977,4.2984,4.301,4.3008,4.3053,4.3002,4.3035,4.3037,4.3034,4.3146,4.3166,4.3247,4.3108,4.3109,4.3111,0,4.2906,4.2926,4.2996,4.3004,4.3016,4.3046,4.3068,4.3091,4.3103,4.3099,4.3113,4.3094,4.3132,4.309,4.3141,4.3106,4.3119,4.312,4.3123,4.3125,4.3078,4.3151,4.3273,4.3285,4.3128,4.3126,4.3125,0,4.2985,4.303,4.3077,4.3086,4.3096,4.3119,4.3124,4.3133,4.3148,4.3166,4.3176,4.3198,4.321,4.3227,4.3215,4.3185,4.3268,4.3224,4.3265,4.3266,4.3284,4.3283,4.3409,4.3292,4.3292,4.3292,4.3292,0,4.3081,4.3125,4.3113,4.3142,4.319,4.3175,4.3222,4.3223,4.3232,4.326,4.3235,4.3262,4.3244,4.3269,4.326,4.3304,4.3309,4.3307,4.3304,4.3309,4.331,4.3317,4.3311,4.3295,4.3295,4.3294,4.3293,0,4.3178,4.3172,4.3222,4.3228,4.3231,4.3266,4.3271,4.3297,4.3293,4.3329,4.3337,4.3331,4.3359,4.3349,4.3378,4.3372,4.3428,4.3418,4.3425,4.3422,4.3464,4.346,4.3599,4.3617,4.3489,4.349,4.3491,0,4.324,4.3273,4.3283,4.3301,4.3309,4.3338,4.3354,4.334,4.3357,4.3373,4.3398,4.3424,4.3444,4.3491,4.3488,4.3511,4.3501,4.3548,4.3504,4.3508,4.3501,4.35,4.3503,4.3557,4.3558,4.3559,4.356,0,4.335,4.3346,4.337,4.3395,4.3415,4.3433,4.3448,4.3464,4.345,4.3471,4.3501,4.3517,4.3548,4.3574,4.3594,4.3598,4.3577,4.3575,4.3585,4.3591,4.3594,4.3593,4.3449,4.3571,4.357,4.3569,4.3569,4.3568,4.3431,4.3459,4.3472,4.35,4.3511,4.3526,4.3552,4.3552,4.3576,4.3601,4.3591,4.3625,4.3635,4.3661,4.3668,4.3693,4.3675,4.369,4.3694,4.3698,4.3704,4.359,4.3697,4.3697,4.3696,4.3696,4.3696,0,4.354,4.3547,4.3573,4.3597,4.3619,4.3599,4.3615,4.3634,4.3665,4.3677,4.3698,4.3732,4.3757,4.3757,4.3781,4.3801,4.3792,4.3808,4.3806,4.3808,4.3719,4.3708,4.3815,4.3815,4.3815,4.3815,4.3815,4.3815,4.36,4.3647,4.3644,4.3695,4.3701,4.3735,4.3746,4.376,4.377,4.3809,4.3831,4.3831,4.3838,4.3862,4.3884,4.3883,4.3893,4.3913,4.3908,4.3826,4.3814,4.3802,4.3792,4.3915,4.3915,4.3995,4.3995,4.3996]}]]